www.pogodaiklimat.ru

Погода и климат >> Архив погоды >> Мексика >> Soto La Marina


ПОГОДА в Soto La Marina

  • Прогноз погоды в Soto La Marina
  • Монитор погоды в Soto La Marina
  • Климат города

АРХИВ ПОГОДЫ в Soto La Marina

Время (UTC), дата Ветер
(напр.,м/с)
 
Видим.   Явления Облачность Т
(С)
Тd
(С)
f
(%)
Тe
(С)
Тes
(С)
Комфортность P
(гПа)
Po
(гПа)
Тmin
(С)
Tmax
(С)
R
(мм)
R24
(мм)
S
(см)
12 9.10 штиль 0 5000 м ясно +22.7 +21.6 94 +30 +30 очень
душно
1003.6 1001.2 +22.7 +35.2
15 9.10 штиль 0 10 км ясно +27.1 +20.7 68 +34 +41 очень
душно
1004.2 1001.8
18 9.10 ЮВ 3 9000 м мгла {туман} 1/1 600 м
[Cu med, cong]
+35.2 +21.7 46 +43 +55 опасность
перегрева
1003.1 1000.7 +22.2 +35.3
21 9.10 ЮВ 2 8000 м мгла {туман} 1/1 600 м
[Cu med, cong]
+36.9 +22.3 43 +46 +54 опасность
перегрева
1000.6 998.2
00 10.10 штиль 0 8000 м мгла {туман} ясно +32.5 +22.8 57 +43 +43 опасность
перегрева
1001.4 999.1 +22.2 +37.0
03 10.10 штиль 0 6000 м ясно +28.4 +23.8 76 +39 +39 очень
душно
1004.8 1002.6
12 10.10 штиль 0 5000 м ясно +25.4 +24.2 93 +35 +35 очень
душно
1006.5 1004.1 +25.4 +37.0
15 10.10 штиль 0 10 км 5/5 960 м
[St]
+27.2 +21.9 73 +35 +39 очень
душно
1008.9 1006.5
18 10.10 штиль 0 9000 м мгла {туман} 4/4 600 м
[Cb cap]
+34.2 +23.3 53 +45 +57 опасность
перегрева
1008.6 1006.2 +25.2 +34.3
21 10.10 В 2 9000 м 8/8 600 м
[Cb cap]
+33.3 +24.6 60 +46 +48 опасность
перегрева
1006.5 1004.1
00 11.10 штиль 0 10 км в посл. час морось 4/1 600 м
[Cb cap As op]
+29.3 +23.4 71 +40 +40 очень
душно
1007.2 1004.8 6
03 11.10 С 1 10 км 4/4 600 м
[Cb cap]
+28.0 +25.3 85 +41 +41 опасность
перегрева
1011.0 1008.6
12 11.10 штиль 0 5000 м {морось} ясно +22.3 +21.4 95 +29 +29 очень
душно
1012.0 1009.6 +22.3 +36.0 0.5
15 11.10 штиль 0 10 км ясно +25.8 +23.7 88 +35 +42 очень
душно
1013.7 1011.3
18 11.10 штиль 0 10 км 4/4 600 м
[Cb cap]
+32.7 +25.8 67 +48 +60 опасность
перегрева
1012.6 1010.2 +22.2 +32.8
21 11.10 СВ 2 10 км 1/1 600 м
[Cb cap]
+32.2 +23.2 59 +43 +51 опасность
перегрева
1010.8 1008.4
00 12.10 штиль 0 10 км 4/0 2000 м
[Ac trans]
+30.3 +24.2 70 +42 +42 опасность
перегрева
1009.3 1006.9 +22.2 +34.2
03 12.10 штиль 0 6000 м ясно +27.2 +23.9 82 +37 +37 очень
душно
1012.8 1010.4
12 12.10 штиль 0 100 м туман ясно +23.8 +23.1 96 +32 +32 очень
душно
1012.0 1009.6 +23.8 +34.2
15 12.10 штиль 0 10 км 5/5 600 м
[Cu med, cong]
+25.6 +22.1 81 +33 +37 очень
душно
1013.1 1010.7
18 12.10 В 2 10 км 6/6 600 м
[Cu med, cong]
+32.1 +24.3 63 +44 +50 опасность
перегрева
1011.5 1009.1 +23.8 +32.2
21 12.10 ЮВ 2 10 км 1/1 600 м
[Cu med, cong]
+34.8 +25.2 58 +49 +58 опасность
перегрева
1008.3 1005.9
00 13.10 ЮВ 1 10 км ясно +32.3 +24.8 65 +46 +46 опасность
перегрева
1007.9 1005.5 +23.8 +35.4
03 13.10 ЮВ 1 6000 м ясно +27.4 +23.8 81 +38 +38 очень
душно
1009.4 1007.0
12 13.10 штиль 0 7000 м ясно +23.9 +22.8 94 +32 +32 очень
душно
1008.0 1005.6 +23.7 +35.4
15 13.10 штиль 0 10 км ясно +28.0 +23.3 76 +38 +45 очень
душно
1009.4 1007.0
18 13.10 В 3 10 км 1/1 600 м
[Cu med, cong]
+34.9 +24.3 54 +47 +58 опасность
перегрева
1009.2 1006.8 +23.7 +35.0
21 13.10 ЮВ 3 10 км ясно +35.8 +23.5 49 +46 +54 опасность
перегрева
1004.9 1002.5
00 14.10 ЮВ 1 10 км ясно +32.3 +23.8 61 +44 +44 опасность
перегрева
1005.2 1007.8 +23.7 +36.5
03 14.10 ЮВ 1 6000 м ясно +27.6 +22.6 74 +36 +36 очень
душно
1007.6 1005.2
06 14.10 ЮВ 1 5000 м ясно +26.2 +23.2 84 +35 +35 очень
душно
1008.0 1005.6 +36.5
09 14.10 ЮВ 1 5000 м ясно +25.2 +22.8 87 +33 +33 очень
душно
1007.9 1005.5
12 14.10 штиль 0 6000 м ясно +24.2 +23.2 94 +32 +32 очень
душно
1007.6 1005.2 +24.1 +36.5
18 14.10 ЮВ 3 8000 м мгла {туман} 4/4 630 м
[Cu med, cong]
+35.2 +24.2 53 +47 +55 опасность
перегрева
1008.2 1005.8 +24.1 +35.3
21 14.10 ЮВ 3 8000 м мгла {туман} 1/1 600 м
[Cu med, cong]
+36.9 +24.5 49 +49 +56 опасность
перегрева
1005.5 1003.1
00 15.10 В 2 8000 м мгла {туман} ясно +32.1 +23.5 60 +43 +43 опасность
перегрева
1005.8 1003.5 +24.1 +37.0
03 15.10 В 1 6000 м ясно +28.5 +25.1 82 +41 +41 опасность
перегрева
1008.8 1006.5
06 15.10 штиль 0 5000 м 5/0 2000 м
[Ac trans]
+28.2 +25.8 87 +42 +42 опасность
перегрева
1009.0 1006.6 +28.2 +37.0
09 15.10 штиль 0 5000 м ясно +27.0 +25.8 93 +40 +40 очень
душно
1008.7 1006.3
12 15.10 штиль 0 7000 м 1/1 600 м
[Cb cap]
+25.9 +25.2 96 +37 +37 очень
душно
1009.6 1007.2 +25.7 +37.0
15 15.10 штиль 0 7000 м мгла {туман} 4/4 600 м
[Cb cap]
+26.7 +23.8 84 +37 +41 очень
душно
1010.4 1008.0
18 15.10 В 3 10 км в посл. час морось 9/3 600 м
[Cb cap As op]
+29.7 +28.1 91 +49 +52 опасность
перегрева
1010.7 1008.3 0.2
21 15.10 В 3 10 км 4/4 600 м
[Cb cap As op]
+32.0 +26.0 71 +48 +52 опасность
перегрева
1011.3 1006.7
00 16.10 СЗ 3 3000 м сильный дождь 10/10 600 м
[Cb cap]
+16.3 +14.7 90 +16 +16 1013.3 1010.9 37
03 16.10 С 2 2000 м слабая морось 10/10 600 м
[Cb cap]
+14.6 +14.6 100 +14 +14 1017.8 1015.4 2
06 16.10 С 2 5000 м в посл. час дождь {морось} 10/10 600 м
[Cb cap]
+13.2 +13.2 100 +12 +12 1019.2 1016.7 8
09 16.10 С 1 5000 м слабая морось 10/10 600 м
[Cb cap]
+12.6 +9.3 80 +13 +13 1019.3 1016.8 0.2

 

Местоположение метеостанции Soto La Marina (Мексика): широта 23.77 долгота -98.20 высота над уровнем моря 21 м.

В архиве по умолчанию представлена погода в Soto La Marina за последнюю неделю. Архивные данные за месяц целиком и за предыдущие месяцы, начиная с января 2011 года, Вы можете получить, выбрав интересующий диапазон дат из раскрывающегося списка и нажав кнопку "Ввод!".


*Определитесь, кто Вы:
робот инопланетянин человек

Внимание! Время в таблицах - всемирное. Для получения местного времени необходимо прибавить поправку, которая в Soto La Marina равна -6 ч.

Смотрите также архив погоды в соседних городах и на ближайших метеорологических станциях:

Погода в Ciudad Victoria (Мексика) (95 км)
Погода в Tampico (Мексика) (178 км)
Погода в Tamuin (Мексика) (205 км)
Погода в Rio Verde (Мексика) (274 км)
Погода в Matlapa (Мексика) (280 км)
Погода в Monterrey (Мексика) (304 км)
Погода в Tuxpan (Мексика) (324 км)
Погода в San Luis Potosi (Мексика) (328 км)
Погода в Saltillo (Мексика) (334 км)
Погода в Pachuca (Мексика) (409 км)

Пояснения к столбцам:

Ветер - указаны скорость ветра в м/с - средняя за 10 мин, порывы в срок и между сроками (в фигурных скобках) и направление, откуда дует ветер: С - северный, СВ - северо-восточный, В - восточный, ЮВ - юго-восточный, Ю - южный, ЮЗ - юго-западный, З - западный, СЗ - северо-западный.
Видимость - горизонтальная дальность видимости в метрах или километрах. При видимости от 1 до 10 км при отсутствии осадков обычно наблюдается дымка, при ухудшении видимости до 1 км и менее - туман. В сухую погоду видимость может ухудшаться дымом, пылью или мглою.
Явления - указаны атмосферные явления, наблюдавшиеся в срок или в последний час перед сроком; фигурными скобками обозначены явления, наблюдавшиеся между сроками (за 1-3 часа до срока); квадратными скобками обозначены град или гололедные отложения с указанием их диаметра в мм.
Облачность - указаны через наклонную черту общая и нижняя облачность в баллах и высота нижней границы облаков в метрах; квадратными скобками обозначены формы облаков: Ci - перистые, Cs - перисто-слоистые, Cc - перисто-кучевые, Ac - высококучевые, As - высокослоистые, Sc - слоисто-кучевые, Ns - слоисто-дождевые, Cu - кучевые, Cb - кучево-дождевые. Подробнее классификацию облаков см. в Атласе облаков (PDF).
T - Температура воздуха - температура, измеренная на высоте 2 м над землей.
Td - Температура точки росы - температура, при понижении до которой содержащийся в воздухе водяной пар достигнет насыщения.
f - Относительная влажность воздуха - влажноcть воздуха, измеренная на высоте 2 м над землей.
Te - Эффективная температура - температура, которую ощущает одетый по сезону человек в тени. Характеристика душности погоды. При расчете учитывается влияние влажности воздуха и скорости ветра на теплоощущения человека.
Tes - Эффективная температура на солнце - температура, которую ощущает человек, с поправкой на солнечный нагрев. Характеристика знойности погоды. Зависит от высоты солнца над горизонтом, облачности и скорости ветра. Ночью, в пасмурную погоду, а также при ветре 12 м/с и более поправка равна нулю.
P - Атмосферное давление - приведенное к уровню моря атмосферное давление.
Po - Атмосферное давление - измеренное на уровне метеостанции атмосферное давление.
Tmin - Минимальная температура - минимум температуры воздуха на высоте 2 м над землей.
Tmax - Максимальная температура - максимум температуры воздуха на высоте 2 м над землей.
R - Количество осадков - Количество выпавших осадков за период времени, мм. При наведении курсора мыши на число - период времени, за который выпало указанное количество осадков.
R24 - Количество осадков - Количество выпавших осадков за 24 часа, мм.
S - Снежный покров - Высота снежного покрова, см. При наведении курсора мыши на число - состояние снежного покрова и степень покрытия местности в баллах.